| time (UTC) | temp C | wind direction | speed KPH | gust KPH | rain 1hr cm | rain 24hr cm | rain mn cm | humidity % | barometer mb |
| 20260509032055 | 12 | 231 | 0.0 | 0.0 | 0.00 | 0.00 | 0.00 | 71 | 1010.2 |
| 20260509031553 | 12 | 231 | 0.0 | 0.0 | 0.00 | 0.00 | 0.00 | 74 | 1010.3 |
| 20260509031050 | 12 | 231 | 0.0 | 0.0 | 0.00 | 0.00 | 0.00 | 74 | 1010.2 |
| 20260509030548 | 12 | 231 | 0.0 | 0.0 | 0.00 | 0.00 | 0.00 | 71 | 1010.2 |
| 20260509030044 | 12 | 231 | 0.0 | 0.0 | 0.00 | 0.00 | 0.00 | 75 | 1010.3 |
| 20260509025541 | 12 | 231 | 0.0 | 0.0 | 0.00 | 0.00 | 0.00 | 75 | 1010.4 |
| 20260509025036 | 12 | 231 | 0.0 | 0.0 | 0.00 | 0.00 | 0.00 | 73 | 1010.4 |
| 20260509024532 | 12 | 231 | 0.0 | 0.0 | 0.00 | 0.00 | 0.00 | 71 | 1010.5 |
| 20260509024029 | 12 | 231 | 0.0 | 0.0 | 0.00 | 0.00 | 0.00 | 70 | 1010.5 |
| 20260509023527 | 12 | 231 | 0.0 | 0.0 | 0.00 | 0.00 | 0.00 | 70 | 1010.5 |
| 20260509023023 | 12 | 231 | 0.0 | 0.0 | 0.00 | 0.00 | 0.00 | 69 | 1010.4 |
| 20260509022520 | 12 | 231 | 0.0 | 0.0 | 0.00 | 0.00 | 0.00 | 70 | 1010.6 |
| 20260509022018 | 13 | 231 | 0.0 | 0.0 | 0.00 | 0.00 | 0.00 | 67 | 1010.5 |
| 20260509021514 | 13 | 230 | 0.0 | 0.0 | 0.00 | 0.00 | 0.00 | 64 | 1010.4 |
| 20260509021011 | 13 | 230 | 0.0 | 0.0 | 0.00 | 0.00 | 0.00 | 66 | 1010.4 |
| 20260509020509 | 14 | 230 | 0.0 | 0.0 | 0.00 | 0.00 | 0.00 | 60 | 1010.6 |
| 20260509020006 | 14 | 230 | 0.0 | 1.6 | 0.00 | 0.00 | 0.00 | 55 | 1010.5 |
| 20260509015505 | 13 | 241 | 1.6 | 0.0 | 0.00 | 0.00 | 0.00 | 57 | 1010.5 |
| 20260509015002 | 13 | 241 | 0.0 | 0.0 | 0.00 | 0.00 | 0.00 | 58 | 1010.5 |
| 20260509014458 | 14 | 241 | 0.0 | 0.0 | 0.00 | 0.00 | 0.00 | 59 | 1010.5 |
| 20260509013954 | 15 | 241 | 0.0 | 0.0 | 0.00 | 0.00 | 0.00 | 54 | 1010.4 |
| 20260509013452 | 15 | 241 | 0.0 | 0.0 | 0.00 | 0.00 | 0.00 | 52 | 1010.5 |
| 20260509012947 | 15 | 243 | 1.6 | 1.6 | 0.00 | 0.00 | 0.00 | 53 | 1010.4 |
| 20260509012444 | 14 | 253 | 0.0 | 0.0 | 0.00 | 0.00 | 0.00 | 55 | 1010.4 |
| 20260509011940 | 15 | 253 | 0.0 | 0.0 | 0.00 | 0.00 | 0.00 | 56 | 1010.5 |
| 20260509011439 | 16 | 253 | 0.0 | 0.0 | 0.00 | 0.00 | 0.00 | 49 | 1010.3 |
| 20260509010936 | 16 | 253 | 0.0 | 0.0 | 0.00 | 0.00 | 0.00 | 45 | 1010.4 |
| 20260509010434 | 16 | 253 | 0.0 | 1.6 | 0.00 | 0.00 | 0.00 | 45 | 1010.3 |
| 20260509005930 | 17 | 252 | 0.0 | 1.6 | 0.00 | 0.00 | 0.00 | 47 | 1010.2 |
| 20260509005429 | 17 | 253 | 1.6 | 1.6 | 0.00 | 0.00 | 0.00 | 42 | 1010.3 |
| 20260509004928 | 17 | 253 | 1.6 | 1.6 | 0.00 | 0.00 | 0.00 | 43 | 1010.2 |
| 20260509004425 | 17 | 253 | 0.0 | 0.0 | 0.00 | 0.00 | 0.00 | 42 | 1010.0 |
| 20260509003923 | 17 | 253 | 0.0 | 0.0 | 0.00 | 0.00 | 0.00 | 42 | 1010.4 |
| 20260509003421 | 18 | 253 | 0.0 | 0.0 | 0.00 | 0.00 | 0.00 | 42 | 1010.3 |
| 20260509002917 | 18 | 253 | 0.0 | 0.0 | 0.00 | 0.00 | 0.00 | 40 | 1010.4 |
| 20260509002416 | 18 | 245 | 1.6 | 1.6 | 0.00 | 0.00 | 0.00 | 40 | 1010.4 |
| 20260509001912 | 19 | 253 | 1.6 | 3.2 | 0.00 | 0.00 | 0.00 | 39 | 1010.4 |
| 20260509001408 | 19 | 236 | 1.6 | 4.8 | 0.00 | 0.00 | 0.00 | 38 | 1010.5 |
| 20260509000906 | 19 | 256 | 1.6 | 3.2 | 0.00 | 0.00 | 0.00 | 38 | 1010.5 |
| 20260509000403 | 20 | 257 | 0.0 | 3.2 | 0.00 | 0.00 | 0.00 | 37 | 1010.5 |
| 20260508235859 | 20 | 252 | 4.8 | 6.4 | 0.00 | 0.00 | 0.00 | 36 | 1010.5 |
| 20260508235356 | 20 | 263 | 3.2 | 4.8 | 0.00 | 0.00 | 0.00 | 35 | 1010.6 |
| 20260508234854 | 20 | 253 | 4.8 | 6.4 | 0.00 | 0.00 | 0.00 | 36 | 1010.3 |
| 20260508234350 | 19 | 248 | 6.4 | 9.7 | 0.00 | 0.00 | 0.00 | 37 | 1010.5 |
| 20260508233849 | 20 | 228 | 1.6 | 4.8 | 0.00 | 0.00 | 0.00 | 37 | 1010.7 |
| 20260508233348 | 20 | 281 | 8.0 | 9.7 | 0.00 | 0.00 | 0.00 | 35 | 1010.5 |
| 20260508232844 | 20 | 278 | 8.0 | 9.7 | 0.00 | 0.00 | 0.00 | 34 | 1010.8 |
| 20260508232340 | 20 | 286 | 6.4 | 11.3 | 0.00 | 0.00 | 0.00 | 34 | 1011.0 |
| 20260508231839 | 20 | 259 | 8.0 | 12.9 | 0.00 | 0.00 | 0.00 | 34 | 1010.8 |
| 20260508231335 | 20 | 257 | 8.0 | 12.9 | 0.00 | 0.00 | 0.00 | 33 | 1011.0 |
| 20260508230831 | 21 | 305 | 16.1 | 24.1 | 0.00 | 0.00 | 0.00 | 32 | 1010.7 |
| 20260508230328 | 21 | 230 | 8.0 | 24.1 | 0.00 | 0.00 | 0.00 | 34 | 1011.1 |
| 20260508225826 | 21 | 265 | 8.0 | 12.9 | 0.00 | 0.00 | 0.00 | 34 | 1011.0 |
| 20260508225322 | 21 | 274 | 8.0 | 12.9 | 0.00 | 0.00 | 0.00 | 34 | 1010.7 |
| 20260508224820 | 21 | 247 | 1.6 | 24.1 | 0.00 | 0.00 | 0.00 | 34 | 1010.7 |
| 20260508224317 | 21 | 294 | 4.8 | 14.5 | 0.00 | 0.00 | 0.00 | 33 | 1010.7 |
| 20260508223815 | 21 | 239 | 6.4 | 14.5 | 0.00 | 0.00 | 0.00 | 33 | 1010.6 |
| 20260508223312 | 21 | 268 | 17.7 | 24.1 | 0.00 | 0.00 | 0.00 | 33 | 1010.5 |
| 20260508222810 | 21 | 191 | 4.8 | 14.5 | 0.00 | 0.00 | 0.00 | 36 | 1010.6 |
| 20260508222307 | 21 | 235 | 3.2 | 14.5 | 0.00 | 0.00 | 0.00 | 33 | 1010.3 |
| 20260508221803 | 21 | 226 | 4.8 | 6.4 | 0.00 | 0.00 | 0.00 | 35 | 1010.5 |
| 20260508221259 | 21 | 276 | 9.7 | 16.1 | 0.00 | 0.00 | 0.00 | 34 | 1010.7 |
| 20260508220755 | 21 | 277 | 6.4 | 9.7 | 0.00 | 0.00 | 0.00 | 34 | 1010.6 |
| 20260508220252 | 21 | 243 | 4.8 | 14.5 | 0.00 | 0.00 | 0.00 | 35 | 1010.4 |
| 20260508215748 | 22 | 258 | 4.8 | 16.1 | 0.00 | 0.00 | 0.00 | 34 | 1010.5 |
| 20260508215245 | 22 | 219 | 3.2 | 6.4 | 0.00 | 0.00 | 0.00 | 37 | 1010.5 |
| 20260508214742 | 22 | 268 | 8.0 | 14.5 | 0.00 | 0.00 | 0.00 | 30 | 1010.8 |
| 20260508214239 | 22 | 203 | 1.6 | 6.4 | 0.00 | 0.00 | 0.00 | 34 | 1010.7 |
| 20260508213736 | 21 | 192 | 6.4 | 6.4 | 0.00 | 0.00 | 0.00 | 35 | 1010.8 |
| 20260508213232 | 21 | 263 | 14.5 | 16.1 | 0.00 | 0.00 | 0.00 | 32 | 1011.1 |
| 20260508212729 | 21 | 231 | 9.7 | 16.1 | 0.00 | 0.00 | 0.00 | 31 | 1011.0 |
| 20260508212225 | 21 | 224 | 9.7 | 11.3 | 0.00 | 0.00 | 0.00 | 30 | 1010.8 |
| 20260508211721 | 21 | 282 | 12.9 | 22.5 | 0.00 | 0.00 | 0.00 | 32 | 1010.7 |
| 20260508211217 | 21 | 265 | 11.3 | 16.1 | 0.00 | 0.00 | 0.00 | 31 | 1010.6 |
| 20260508210715 | 21 | 253 | 11.3 | 22.5 | 0.00 | 0.00 | 0.00 | 31 | 1010.7 |
| 20260508210212 | 21 | 219 | 8.0 | 17.7 | 0.00 | 0.00 | 0.00 | 33 | 1011.2 |
| 20260508205708 | 22 | 284 | 17.7 | 24.1 | 0.00 | 0.00 | 0.00 | 29 | 1011.1 |
| 20260508205205 | 21 | 266 | 4.8 | 4.8 | 0.00 | 0.00 | 0.00 | 35 | 1011.2 |
| 20260508204701 | 21 | 294 | 9.7 | 14.5 | 0.00 | 0.00 | 0.00 | 29 | 1011.3 |
| 20260508204157 | 21 | 285 | 12.9 | 20.9 | 0.00 | 0.00 | 0.00 | 31 | 1011.4 |
| 20260508203653 | 21 | 316 | 22.5 | 24.1 | 0.00 | 0.00 | 0.00 | 28 | 1011.7 |
| 20260508203150 | 21 | 278 | 1.6 | 6.4 | 0.00 | 0.00 | 0.00 | 33 | 1011.6 |
| 20260508202646 | 21 | 176 | 4.8 | 14.5 | 0.00 | 0.00 | 0.00 | 31 | 1011.6 |
| 20260508202144 | 21 | 244 | 8.0 | 20.9 | 0.00 | 0.00 | 0.00 | 30 | 1011.6 |
| 20260508201640 | 22 | 282 | 4.8 | 17.7 | 0.00 | 0.00 | 0.00 | 34 | 1011.9 |
| 20260508201137 | 21 | 275 | 9.7 | 12.9 | 0.00 | 0.00 | 0.00 | 35 | 1011.9 |
| 20260508200634 | 21 | 256 | 19.3 | 22.5 | 0.00 | 0.00 | 0.00 | 30 | 1012.2 |
| 20260508200129 | 21 | 307 | 6.4 | 20.9 | 0.00 | 0.00 | 0.00 | 31 | 1012.3 |
| 20260508195626 | 21 | 296 | 8.0 | 17.7 | 0.00 | 0.00 | 0.00 | 29 | 1012.4 |
| 20260508195122 | 21 | 282 | 9.7 | 12.9 | 0.00 | 0.00 | 0.00 | 34 | 1012.3 |
| 20260508194619 | 21 | 291 | 17.7 | 22.5 | 0.00 | 0.00 | 0.00 | 32 | 1012.0 |
| 20260508194117 | 21 | 247 | 0.0 | 16.1 | 0.00 | 0.00 | 0.00 | 33 | 1012.1 |
| 20260508193613 | 21 | 282 | 3.2 | 14.5 | 0.00 | 0.00 | 0.00 | 32 | 1012.1 |
| 20260508193110 | 21 | 262 | 9.7 | 17.7 | 0.00 | 0.00 | 0.00 | 32 | 1012.1 |
| 20260508192607 | 21 | 274 | 8.0 | 16.1 | 0.00 | 0.00 | 0.00 | 30 | 1012.1 |
| 20260508192104 | 21 | 183 | 3.2 | 17.7 | 0.00 | 0.00 | 0.00 | 33 | 1012.1 |
| 20260508191600 | 21 | 251 | 3.2 | 14.5 | 0.00 | 0.00 | 0.00 | 31 | 1012.0 |
| 20260508191057 | 21 | 252 | 9.7 | 14.5 | 0.00 | 0.00 | 0.00 | 30 | 1012.1 |
| 20260508190554 | 21 | 270 | 6.4 | 24.1 | 0.00 | 0.00 | 0.00 | 37 | 1012.1 |
| 20260508190050 | 21 | 119 | 3.2 | 20.9 | 0.00 | 0.00 | 0.00 | 33 | 1012.7 |
| 20260508185548 | 21 | 290 | 19.3 | 22.5 | 0.00 | 0.00 | 0.00 | 31 | 1012.5 |
| 20260508185045 | 21 | 295 | 11.3 | 16.1 | 0.00 | 0.00 | 0.00 | 32 | 1012.6 |
| 20260508184543 | 21 | 182 | 1.6 | 4.8 | 0.00 | 0.00 | 0.00 | 36 | 1012.5 |
| 20260508184039 | 21 | 232 | 11.3 | 22.5 | 0.00 | 0.00 | 0.00 | 30 | 1012.7 |
| 20260508183536 | 21 | 151 | 6.4 | 9.7 | 0.00 | 0.00 | 0.00 | 31 | 1012.8 |
| 20260508183032 | 20 | 243 | 6.4 | 12.9 | 0.00 | 0.00 | 0.00 | 31 | 1012.8 |
| 20260508182529 | 20 | 200 | 4.8 | 12.9 | 0.00 | 0.00 | 0.00 | 30 | 1012.8 |
| 20260508182025 | 20 | 166 | 3.2 | 12.9 | 0.00 | 0.00 | 0.00 | 31 | 1012.9 |
| 20260508181520 | 20 | 40 | 3.2 | 17.7 | 0.00 | 0.00 | 0.00 | 38 | 1012.9 |
| 20260508181019 | 21 | 252 | 6.4 | 11.3 | 0.00 | 0.00 | 0.00 | 32 | 1013.3 |
| 20260508180515 | 20 | 189 | 3.2 | 16.1 | 0.00 | 0.00 | 0.00 | 33 | 1013.2 |
| 20260508180011 | 20 | 277 | 9.7 | 14.5 | 0.00 | 0.00 | 0.00 | 33 | 1013.5 |
| 20260508175508 | 21 | 284 | 14.5 | 22.5 | 0.00 | 0.00 | 0.00 | 31 | 1013.3 |
| 20260508175005 | 20 | 170 | 3.2 | 14.5 | 0.00 | 0.00 | 0.00 | 34 | 1013.6 |
| 20260508174503 | 20 | 266 | 3.2 | 20.9 | 0.00 | 0.00 | 0.00 | 32 | 1013.6 |
| 20260508173959 | 20 | 204 | 6.4 | 6.4 | 0.00 | 0.00 | 0.00 | 33 | 1013.8 |
| 20260508173457 | 20 | 157 | 11.3 | 12.9 | 0.00 | 0.00 | 0.00 | 35 | 1014.0 |
| 20260508172952 | 20 | 229 | 11.3 | 16.1 | 0.00 | 0.00 | 0.00 | 38 | 1014.2 |
| 20260508172449 | 20 | 275 | 6.4 | 12.9 | 0.00 | 0.00 | 0.00 | 36 | 1014.2 |
| 20260508171946 | 20 | 263 | 6.4 | 9.7 | 0.00 | 0.00 | 0.00 | 32 | 1014.2 |
| 20260508171443 | 20 | 272 | 6.4 | 11.3 | 0.00 | 0.00 | 0.00 | 36 | 1014.3 |
| 20260508170939 | 20 | 209 | 6.4 | 12.9 | 0.00 | 0.00 | 0.00 | 40 | 1014.4 |
| 20260508170437 | 20 | 267 | 8.0 | 16.1 | 0.00 | 0.00 | 0.00 | 36 | 1014.4 |
| 20260508165933 | 20 | 166 | 6.4 | 9.7 | 0.00 | 0.00 | 0.00 | 36 | 1014.5 |
| 20260508165432 | 20 | 284 | 12.9 | 16.1 | 0.00 | 0.00 | 0.00 | 35 | 1014.7 |
| 20260508164927 | 20 | 260 | 1.6 | 11.3 | 0.00 | 0.00 | 0.00 | 38 | 1014.7 |
| 20260508164424 | 19 | 203 | 3.2 | 11.3 | 0.00 | 0.00 | 0.00 | 42 | 1014.8 |
| 20260508163921 | 20 | 269 | 8.0 | 11.3 | 0.00 | 0.00 | 0.00 | 42 | 1014.9 |
| 20260508163419 | 19 | 270 | 1.6 | 4.8 | 0.00 | 0.00 | 0.00 | 48 | 1015.3 |
| 20260508162914 | 19 | 294 | 1.6 | 11.3 | 0.00 | 0.00 | 0.00 | 41 | 1015.4 |
| 20260508162412 | 19 | 259 | 9.7 | 17.7 | 0.00 | 0.00 | 0.00 | 36 | 1015.4 |
| 20260508161909 | 19 | 255 | 4.8 | 11.3 | 0.00 | 0.00 | 0.00 | 38 | 1015.5 |
| 20260508161406 | 19 | 246 | 4.8 | 6.4 | 0.00 | 0.00 | 0.00 | 39 | 1015.4 |
| 20260508160903 | 19 | 222 | 4.8 | 6.4 | 0.00 | 0.00 | 0.00 | 43 | 1015.5 |
| 20260508160402 | 18 | 284 | 9.7 | 14.5 | 0.00 | 0.00 | 0.00 | 41 | 1015.5 |
| 20260508155857 | 18 | 256 | 4.8 | 12.9 | 0.00 | 0.00 | 0.00 | 43 | 1015.5 |
| 20260508155355 | 18 | 251 | 3.2 | 4.8 | 0.00 | 0.00 | 0.00 | 40 | 1015.8 |
| 20260508154852 | 18 | 258 | 9.7 | 12.9 | 0.00 | 0.00 | 0.00 | 41 | 1015.9 |
| 20260508154349 | 18 | 298 | 9.7 | 12.9 | 0.00 | 0.00 | 0.00 | 42 | 1016.0 |
| 20260508153846 | 18 | 216 | 1.6 | 11.3 | 0.00 | 0.00 | 0.00 | 40 | 1015.7 |
| 20260508153343 | 18 | 279 | 8.0 | 12.9 | 0.00 | 0.00 | 0.00 | 42 | 1016.0 |
| 20260508152839 | 18 | 249 | 3.2 | 9.7 | 0.00 | 0.00 | 0.00 | 41 | 1016.3 |
| 20260508152336 | 17 | 230 | 4.8 | 6.4 | 0.00 | 0.00 | 0.00 | 42 | 1016.2 |
| 20260508151832 | 17 | 260 | 6.4 | 14.5 | 0.00 | 0.00 | 0.00 | 43 | 1016.2 |
| 20260508151329 | 17 | 283 | 11.3 | 12.9 | 0.00 | 0.00 | 0.00 | 45 | 1016.5 |
| 20260508150825 | 17 | 324 | 8.0 | 16.1 | 0.00 | 0.00 | 0.00 | 44 | 1016.4 |
| 20260508150322 | 17 | 300 | 8.0 | 11.3 | 0.00 | 0.00 | 0.00 | 44 | 1016.3 |
| 20260508145818 | 17 | 271 | 6.4 | 12.9 | 0.00 | 0.00 | 0.00 | 43 | 1016.5 |
| 20260508145315 | 17 | 282 | 6.4 | 12.9 | 0.00 | 0.00 | 0.00 | 42 | 1016.2 |
| 20260508144812 | 17 | 302 | 4.8 | 4.8 | 0.00 | 0.00 | 0.00 | 45 | 1016.4 |
| 20260508144310 | 17 | 247 | 4.8 | 9.7 | 0.00 | 0.00 | 0.00 | 44 | 1016.4 |
| 20260508143807 | 16 | 203 | 4.8 | 14.5 | 0.00 | 0.00 | 0.00 | 44 | 1016.5 |
| 20260508143304 | 16 | 239 | 8.0 | 11.3 | 0.00 | 0.00 | 0.00 | 45 | 1016.5 |
| 20260508142800 | 16 | 288 | 9.7 | 11.3 | 0.00 | 0.00 | 0.00 | 46 | 1016.4 |
| 20260508142257 | 16 | 287 | 6.4 | 16.1 | 0.00 | 0.00 | 0.00 | 47 | 1016.3 |
| 20260508141754 | 16 | 232 | 9.7 | 14.5 | 0.00 | 0.00 | 0.00 | 42 | 1016.3 |
| 20260508141251 | 16 | 237 | 8.0 | 11.3 | 0.00 | 0.00 | 0.00 | 44 | 1016.2 |
| 20260508140748 | 16 | 288 | 6.4 | 9.7 | 0.00 | 0.00 | 0.00 | 47 | 1016.3 |
| 20260508140245 | 16 | 232 | 6.4 | 9.7 | 0.00 | 0.00 | 0.00 | 45 | 1016.2 |
| 20260508135741 | 15 | 276 | 3.2 | 6.4 | 0.00 | 0.00 | 0.00 | 50 | 1016.3 |
| 20260508135237 | 15 | 237 | 8.0 | 11.3 | 0.00 | 0.00 | 0.00 | 46 | 1016.4 |
| 20260508134733 | 15 | 251 | 6.4 | 6.4 | 0.00 | 0.00 | 0.00 | 48 | 1016.3 |
| 20260508134230 | 15 | 258 | 6.4 | 11.3 | 0.00 | 0.00 | 0.00 | 45 | 1016.4 |
| 20260508133727 | 14 | 277 | 8.0 | 9.7 | 0.00 | 0.00 | 0.00 | 51 | 1016.4 |
| 20260508133225 | 14 | 293 | 3.2 | 6.4 | 0.00 | 0.00 | 0.00 | 56 | 1016.6 |
| 20260508132722 | 14 | 272 | 6.4 | 9.7 | 0.00 | 0.00 | 0.00 | 51 | 1016.2 |
| 20260508132220 | 13 | 254 | 1.6 | 1.6 | 0.00 | 0.00 | 0.00 | 54 | 1016.3 |
| 20260508131715 | 13 | 255 | 1.6 | 3.2 | 0.00 | 0.00 | 0.00 | 55 | 1016.4 |
| 20260508131212 | 13 | 285 | 1.6 | 3.2 | 0.00 | 0.00 | 0.00 | 58 | 1016.6 |
| 20260508130708 | 13 | 261 | 1.6 | 3.2 | 0.00 | 0.00 | 0.00 | 53 | 1016.5 |
| 20260508130206 | 12 | 260 | 0.0 | 0.0 | 0.00 | 0.00 | 0.00 | 58 | 1016.4 |
| 20260508125701 | 12 | 253 | 1.6 | 1.6 | 0.00 | 0.00 | 0.00 | 58 | 1016.4 |
| 20260508125157 | 12 | 269 | 0.0 | 1.6 | 0.00 | 0.00 | 0.00 | 60 | 1016.5 |
| 20260508124656 | 12 | 248 | 3.2 | 3.2 | 0.00 | 0.00 | 0.00 | 56 | 1016.4 |
| 20260508124152 | 11 | 161 | 0.0 | 0.0 | 0.00 | 0.00 | 0.00 | 63 | 1016.5 |
| 20260508123651 | 11 | 160 | 0.0 | 0.0 | 0.00 | 0.00 | 0.00 | 62 | 1016.4 |
| 20260508123148 | 10 | 156 | 0.0 | 0.0 | 0.00 | 0.00 | 0.00 | 67 | 1016.7 |
| 20260508122644 | 9 | 137 | 0.0 | 0.0 | 0.00 | 0.00 | 0.00 | 70 | 1016.4 |
| 20260508122141 | 8 | 137 | 1.6 | 1.6 | 0.00 | 0.00 | 0.00 | 71 | 1016.2 |
| 20260508121639 | 8 | 137 | 0.0 | 1.6 | 0.00 | 0.00 | 0.00 | 76 | 1016.3 |
| 20260508121137 | 7 | 136 | 1.6 | 1.6 | 0.00 | 0.00 | 0.00 | 77 | 1016.5 |
| 20260508120634 | 7 | 136 | 0.0 | 0.0 | 0.00 | 0.00 | 0.00 | 79 | 1016.3 |
| 20260508120133 | 6 | 136 | 1.6 | 1.6 | 0.00 | 0.00 | 0.00 | 81 | 1016.5 |
| 20260508115630 | 6 | 136 | 1.6 | 1.6 | 0.00 | 0.00 | 0.00 | 82 | 1016.1 |
| 20260508115126 | 5 | 136 | 0.0 | 1.6 | 0.00 | 0.00 | 0.00 | 83 | 1016.4 |
| 20260508114624 | 5 | 136 | 1.6 | 1.6 | 0.00 | 0.00 | 0.00 | 86 | 1016.3 |
| 20260508114119 | 4 | 136 | 0.0 | 1.6 | 0.00 | 0.00 | 0.00 | 91 | 1016.4 |
| 20260508113617 | 3 | 135 | 1.6 | 1.6 | 0.00 | 0.00 | 0.00 | 96 | 1016.3 |
| 20260508113115 | 3 | 135 | 0.0 | 1.6 | 0.00 | 0.00 | 0.00 | 97 | 1016.1 |
| 20260508112611 | 3 | 135 | 0.0 | 0.0 | 0.00 | 0.00 | 0.00 | 97 | 1016.1 |
| 20260508112108 | 2 | 135 | 0.0 | 0.0 | 0.00 | 0.00 | 0.00 | 97 | 1015.9 |
| 20260508111605 | 2 | 135 | 0.0 | 0.0 | 0.00 | 0.00 | 0.00 | 97 | 1015.9 |
| 20260508111102 | 2 | 135 | 0.0 | 0.0 | 0.00 | 0.00 | 0.00 | 97 | 1016.0 |
| 20260508110600 | 1 | 135 | 0.0 | 0.0 | 0.00 | 0.00 | 0.00 | 97 | 1015.7 |
| 20260508110055 | 2 | 135 | 0.0 | 0.0 | 0.00 | 0.00 | 0.00 | 97 | 1015.9 |
| 20260508105550 | 2 | 135 | 0.0 | 0.0 | 0.00 | 0.00 | 0.00 | 97 | 1015.6 |
| 20260508105048 | 1 | 135 | 0.0 | 0.0 | 0.00 | 0.00 | 0.00 | 97 | 1015.6 |
| 20260508104546 | 1 | 135 | 0.0 | 0.0 | 0.00 | 0.00 | 0.00 | 97 | 1015.8 |
| 20260508104042 | 1 | 135 | 0.0 | 0.0 | 0.00 | 0.00 | 0.00 | 97 | 1015.7 |
| 20260508103539 | 1 | 135 | 0.0 | 0.0 | 0.00 | 0.00 | 0.00 | 96 | 1015.7 |
| 20260508103037 | 1 | 135 | 0.0 | 0.0 | 0.00 | 0.00 | 0.00 | 96 | 1015.7 |
| 20260508102534 | 1 | 135 | 0.0 | 0.0 | 0.00 | 0.00 | 0.00 | 96 | 1015.8 |
| 20260508102032 | 1 | 135 | 0.0 | 0.0 | 0.00 | 0.00 | 0.00 | 96 | 1015.6 |
| 20260508101529 | 1 | 135 | 0.0 | 0.0 | 0.00 | 0.00 | 0.00 | 96 | 1015.7 |
| 20260508101026 | 1 | 135 | 0.0 | 0.0 | 0.00 | 0.00 | 0.00 | 96 | 1015.3 |
| 20260508100524 | 1 | 135 | 0.0 | 0.0 | 0.00 | 0.00 | 0.00 | 96 | 1015.5 |
| 20260508100021 | 1 | 135 | 0.0 | 0.0 | 0.00 | 0.00 | 0.00 | 96 | 1015.5 |
| 20260508095518 | 1 | 135 | 0.0 | 0.0 | 0.00 | 0.00 | 0.00 | 96 | 1015.5 |
| 20260508095015 | 1 | 135 | 0.0 | 0.0 | 0.00 | 0.00 | 0.00 | 96 | 1015.3 |
| 20260508094512 | 1 | 135 | 0.0 | 0.0 | 0.00 | 0.00 | 0.00 | 96 | 1015.5 |
| 20260508094009 | 1 | 135 | 0.0 | 0.0 | 0.00 | 0.00 | 0.00 | 96 | 1015.4 |
| 20260508093506 | 1 | 135 | 0.0 | 0.0 | 0.00 | 0.00 | 0.00 | 95 | 1015.5 |
| 20260508093004 | 1 | 135 | 0.0 | 0.0 | 0.00 | 0.00 | 0.00 | 96 | 1015.4 |
| 20260508092500 | 1 | 135 | 0.0 | 0.0 | 0.00 | 0.00 | 0.00 | 95 | 1015.6 |
| 20260508092000 | 1 | 135 | 0.0 | 0.0 | 0.00 | 0.00 | 0.00 | 95 | 1015.5 |
| 20260508091456 | 1 | 135 | 0.0 | 0.0 | 0.00 | 0.00 | 0.00 | 95 | 1015.5 |
| 20260508090953 | 1 | 135 | 0.0 | 0.0 | 0.00 | 0.00 | 0.00 | 95 | 1015.6 |
| 20260508090451 | 2 | 135 | 0.0 | 0.0 | 0.00 | 0.00 | 0.00 | 95 | 1015.6 |
| 20260508085947 | 2 | 135 | 0.0 | 0.0 | 0.00 | 0.00 | 0.00 | 96 | 1015.7 |
| 20260508085444 | 2 | 135 | 0.0 | 1.6 | 0.00 | 0.00 | 0.00 | 96 | 1015.6 |
| 20260508084941 | 2 | 135 | 0.0 | 0.0 | 0.00 | 0.00 | 0.00 | 96 | 1015.4 |
| 20260508084437 | 3 | 135 | 0.0 | 0.0 | 0.00 | 0.00 | 0.00 | 96 | 1015.4 |
| 20260508083936 | 2 | 135 | 0.0 | 0.0 | 0.00 | 0.00 | 0.00 | 96 | 1015.5 |
| 20260508083432 | 2 | 135 | 0.0 | 0.0 | 0.00 | 0.00 | 0.00 | 96 | 1015.5 |
| 20260508082932 | 2 | 135 | 0.0 | 0.0 | 0.00 | 0.00 | 0.00 | 96 | 1015.7 |
| 20260508082429 | 2 | 135 | 0.0 | 1.6 | 0.00 | 0.00 | 0.00 | 96 | 1015.5 |
| 20260508081928 | 2 | 134 | 1.6 | 1.6 | 0.00 | 0.00 | 0.00 | 96 | 1015.6 |
| 20260508081424 | 2 | 132 | 0.0 | 0.0 | 0.00 | 0.00 | 0.00 | 96 | 1015.5 |
| 20260508080920 | 2 | 132 | 0.0 | 0.0 | 0.00 | 0.00 | 0.00 | 96 | 1015.5 |
| 20260508080419 | 2 | 132 | 0.0 | 0.0 | 0.00 | 0.00 | 0.00 | 95 | 1015.6 |
| 20260508075915 | 2 | 132 | 0.0 | 0.0 | 0.00 | 0.00 | 0.00 | 95 | 1015.8 |
| 20260508075412 | 2 | 132 | 0.0 | 0.0 | 0.00 | 0.00 | 0.00 | 96 | 1015.7 |
| 20260508074910 | 2 | 132 | 0.0 | 1.6 | 0.00 | 0.00 | 0.00 | 96 | 1015.5 |
| 20260508074407 | 2 | 132 | 1.6 | 1.6 | 0.00 | 0.00 | 0.00 | 96 | 1015.5 |
| 20260508073903 | 2 | 103 | 1.6 | 1.6 | 0.00 | 0.00 | 0.00 | 96 | 1015.5 |
| 20260508073401 | 2 | 86 | 0.0 | 0.0 | 0.00 | 0.00 | 0.00 | 95 | 1015.6 |
| 20260508072858 | 2 | 86 | 0.0 | 0.0 | 0.00 | 0.00 | 0.00 | 95 | 1015.5 |
| 20260508072354 | 2 | 86 | 0.0 | 0.0 | 0.00 | 0.00 | 0.00 | 95 | 1015.6 |
| 20260508071852 | 2 | 86 | 0.0 | 0.0 | 0.00 | 0.00 | 0.00 | 95 | 1015.6 |
| 20260508071350 | 2 | 86 | 0.0 | 0.0 | 0.00 | 0.00 | 0.00 | 95 | 1015.6 |
| 20260508070848 | 2 | 86 | 0.0 | 0.0 | 0.00 | 0.00 | 0.00 | 95 | 1015.5 |
| 20260508070345 | 2 | 86 | 0.0 | 0.0 | 0.00 | 0.00 | 0.00 | 95 | 1015.6 |
| 20260508065843 | 2 | 86 | 0.0 | 0.0 | 0.00 | 0.00 | 0.00 | 94 | 1015.7 |
| 20260508065341 | 2 | 86 | 0.0 | 0.0 | 0.00 | 0.00 | 0.00 | 94 | 1015.7 |
| 20260508064839 | 2 | 86 | 0.0 | 1.6 | 0.00 | 0.00 | 0.00 | 94 | 1015.6 |
| 20260508064336 | 3 | 128 | 0.0 | 0.0 | 0.00 | 0.00 | 0.00 | 95 | 1015.6 |
| 20260508063833 | 3 | 128 | 1.6 | 1.6 | 0.00 | 0.00 | 0.00 | 95 | 1015.6 |
| 20260508063331 | 3 | 127 | 1.6 | 1.6 | 0.00 | 0.00 | 0.00 | 94 | 1015.7 |
| 20260508062828 | 2 | 71 | 0.0 | 0.0 | 0.00 | 0.00 | 0.00 | 94 | 1015.7 |
| 20260508062326 | 2 | 70 | 0.0 | 0.0 | 0.00 | 0.00 | 0.00 | 93 | 1015.9 |
| 20260508061822 | 2 | 70 | 1.6 | 1.6 | 0.00 | 0.00 | 0.00 | 93 | 1015.8 |
| 20260508061319 | 3 | 71 | 0.0 | 0.0 | 0.00 | 0.00 | 0.00 | 92 | 1015.7 |
| 20260508060816 | 3 | 72 | 0.0 | 0.0 | 0.00 | 0.00 | 0.00 | 93 | 1015.9 |
| 20260508060314 | 3 | 72 | 1.6 | 1.6 | 0.00 | 0.00 | 0.00 | 94 | 1015.8 |
| 20260508055814 | 3 | 69 | 1.6 | 1.6 | 0.00 | 0.00 | 0.00 | 94 | 1016.0 |
| 20260508055312 | 3 | 359 | 1.6 | 1.6 | 0.00 | 0.00 | 0.00 | 93 | 1016.1 |
| 20260508054809 | 3 | 359 | 0.0 | 0.0 | 0.00 | 0.00 | 0.00 | 91 | 1015.9 |
| 20260508054306 | 3 | 359 | 0.0 | 0.0 | 0.00 | 0.00 | 0.00 | 91 | 1016.1 |
| 20260508053803 | 3 | 359 | 0.0 | 0.0 | 0.00 | 0.00 | 0.00 | 90 | 1016.2 |
| 20260508053300 | 4 | 359 | 0.0 | 0.0 | 0.00 | 0.00 | 0.00 | 90 | 1016.2 |
| 20260508052757 | 4 | 359 | 0.0 | 0.0 | 0.00 | 0.00 | 0.00 | 91 | 1016.4 |
| 20260508052255 | 3 | 0 | 0.0 | 0.0 | 0.00 | 0.00 | 0.00 | 93 | 1016.3 |
| 20260508051750 | 3 | 359 | 0.0 | 0.0 | 0.00 | 0.00 | 0.00 | 94 | 1016.5 |
| 20260508051246 | 3 | 359 | 1.6 | 1.6 | 0.00 | 0.00 | 0.00 | 94 | 1016.3 |
| 20260508050743 | 3 | 359 | 0.0 | 0.0 | 0.00 | 0.00 | 0.00 | 94 | 1016.2 |
| 20260508050240 | 3 | 359 | 0.0 | 0.0 | 0.00 | 0.00 | 0.00 | 94 | 1016.4 |
| 20260508045735 | 3 | 359 | 0.0 | 0.0 | 0.00 | 0.00 | 0.00 | 94 | 1016.1 |
| 20260508045234 | 3 | 359 | 0.0 | 0.0 | 0.00 | 0.00 | 0.00 | 94 | 1016.3 |
| 20260508044731 | 3 | 0 | 0.0 | 0.0 | 0.00 | 0.00 | 0.00 | 94 | 1016.0 |
| 20260508044228 | 3 | 359 | 0.0 | 0.0 | 0.00 | 0.00 | 0.00 | 93 | 1016.0 |
| 20260508043723 | 3 | 359 | 0.0 | 0.0 | 0.00 | 0.00 | 0.00 | 93 | 1016.0 |
| 20260508043221 | 3 | 0 | 0.0 | 0.0 | 0.00 | 0.00 | 0.00 | 93 | 1015.9 |
| 20260508042718 | 4 | 0 | 0.0 | 0.0 | 0.00 | 0.00 | 0.00 | 94 | 1016.0 |
| 20260508042215 | 3 | 0 | 0.0 | 0.0 | 0.00 | 0.00 | 0.00 | 93 | 1016.0 |
| 20260508041711 | 3 | 0 | 0.0 | 0.0 | 0.00 | 0.00 | 0.00 | 92 | 1015.9 |
| 20260508041208 | 4 | 0 | 0.0 | 0.0 | 0.00 | 0.00 | 0.00 | 92 | 1016.0 |
| 20260508040705 | 4 | 0 | 0.0 | 0.0 | 0.00 | 0.00 | 0.00 | 92 | 1016.1 |
| 20260508040202 | 4 | 0 | 0.0 | 0.0 | 0.00 | 0.00 | 0.00 | 93 | 1015.9 |
| 20260508035659 | 4 | 0 | 0.0 | 0.0 | 0.00 | 0.00 | 0.00 | 93 | 1016.0 |
| 20260508035157 | 4 | 0 | 0.0 | 1.6 | 0.00 | 0.00 | 0.00 | 93 | 1015.7 |
| 20260508034653 | 4 | 359 | 0.0 | 0.0 | 0.00 | 0.00 | 0.00 | 91 | 1015.9 |
| 20260508034150 | 4 | 359 | 0.0 | 0.0 | 0.00 | 0.00 | 0.00 | 91 | 1016.2 |
| 20260508033648 | 4 | 0 | 0.0 | 0.0 | 0.00 | 0.00 | 0.00 | 91 | 1016.1 |
| 20260508033146 | 5 | 0 | 0.0 | 0.0 | 0.00 | 0.00 | 0.00 | 90 | 1015.8 |
| 20260508032642 | 5 | 0 | 0.0 | 0.0 | 0.00 | 0.00 | 0.00 | 91 | 1016.0 |